User: anonymous   Login
Location: Unspecified
(0.0000°N, 0.0000°E)
Time: 03:03:47
(UTC+01:00)
Language:

Cosmos 1315 Rocket - Orbit

View from above orbital plane
View from above orbital plane
View from above satellite
View from above satellite

Ground track
Ground track

The orbit data is extracted from the following two-line orbital elements,

1 12904U 81103B   14326.15959736  .00003857  00000-0  28166-3 0  6345
2 12904 081.1790 265.7111 0027710 268.9704 090.8343 15.03153610351775
Epoch (UTC): 22 November 2014 03:49:49
Eccentricity: 0.0027710
inclination: 81.1790°
perigee height: 538 km
apogee height: 576 km
right ascension of ascending node: 265.7111°
argument of perigee: 268.9704°
revolutions per day: 15.03153610
mean anomaly at epoch: 90.8343°
orbit number at epoch: 35177

The dashed part of the orbit path shows where the satellite is in the earth's shadow,  

DLR